Private Wetterstation Wechselburg
Wetterdaten: Donnerstag, 23.12.2021
Datum Zeit Temp. +2m Bodentemp. Temp.+5cm Temp. Wind Windchill X Diff Temp. Feuchte +2m Feuchte +5cm Luftdruck Regen Wind Richtung Richtung Sonnenschein Taupunkt Windchill Windben
23.12.2021 00:00 -4,9 C 5,3 C -5,1 C -5,2 C -5,7 C 0,0 C 88 % 93 % 1023,3 hPa 0,0 l/m 0,0 km/h (0 Bft) W-SW 247 0 min -6,6 C -5,7 C 0,0 km/h (0 Bft)
23.12.2021 00:05 -4,9 C 5,3 C -5,1 C -5,2 C -5,7 C 0,0 C 88 % 93 % 1023,3 hPa 0,0 l/m 0,0 km/h (0 Bft) W-SW 247 0 min -6,6 C -5,7 C 0,0 km/h (0 Bft)
23.12.2021 00:10 -4,9 C 5,3 C -5,2 C -5,2 C -5,8 C 0,0 C 88 % 93 % 1023,4 hPa 0,0 l/m 0,0 km/h (0 Bft) W-SW 247 0 min -6,6 C -5,8 C 0,0 km/h (0 Bft)
23.12.2021 00:15 -4,9 C 5,3 C -5,1 C -5,2 C -5,9 C 0,0 C 88 % 93 % 1023,4 hPa 0,0 l/m 0,0 km/h (0 Bft) W-SW 247 0 min -6,6 C -5,9 C 0,0 km/h (0 Bft)
23.12.2021 00:20 -5,0 C 5,3 C -5,1 C -5,3 C -5,8 C 0,0 C 88 % 93 % 1023,4 hPa 0,0 l/m 0,0 km/h (0 Bft) W-SW 247 0 min -6,7 C -5,8 C 0,0 km/h (0 Bft)
23.12.2021 00:25 -5,0 C 5,3 C -5,1 C -5,3 C -5,8 C 0,0 C 88 % 93 % 1023,4 hPa 0,0 l/m 0,0 km/h (0 Bft) W-SW 247 0 min -6,7 C -5,8 C 0,0 km/h (0 Bft)
23.12.2021 00:30 -5,0 C 5,3 C -5,1 C -5,2 C -5,7 C 0,0 C 88 % 93 % 1023,3 hPa 0,0 l/m 0,0 km/h (0 Bft) W-SW 247 0 min -6,7 C -5,7 C 0,0 km/h (0 Bft)
23.12.2021 00:35 -4,9 C 5,3 C -5,1 C -5,1 C -5,6 C 0,0 C 88 % 93 % 1023,3 hPa 0,0 l/m 0,0 km/h (0 Bft) W-SW 247 0 min -6,6 C -5,6 C 0,0 km/h (0 Bft)
23.12.2021 00:40 -5,0 C 5,3 C -5,1 C -5,2 C -5,7 C 0,0 C 88 % 93 % 1023,3 hPa 0,0 l/m 0,0 km/h (0 Bft) W-SW 247 0 min -6,7 C -5,7 C 0,0 km/h (0 Bft)
23.12.2021 00:45 -4,9 C 5,3 C -5,1 C -5,2 C -5,7 C 0,0 C 88 % 93 % 1023,3 hPa 0,0 l/m 0,0 km/h (0 Bft) W-SW 247 0 min -6,6 C -5,7 C 0,0 km/h (0 Bft)
23.12.2021 00:50 -4,9 C 5,3 C -5,1 C -5,2 C -5,8 C 0,0 C 88 % 93 % 1022,6 hPa 0,0 l/m 0,0 km/h (0 Bft) W-SW 247 0 min -6,6 C -5,8 C 0,0 km/h (0 Bft)
23.12.2021 00:55 -4,9 C 5,3 C -5,1 C -5,1 C -5,6 C 0,0 C 88 % 93 % 1022,6 hPa 0,0 l/m 0,0 km/h (0 Bft) W-SW 247 0 min -6,6 C -5,6 C 0,0 km/h (0 Bft)
23.12.2021 01:00 -4,9 C 5,3 C -5,2 C -5,2 C -5,8 C 0,0 C 88 % 93 % 1022,6 hPa 0,0 l/m 0,0 km/h (0 Bft) W-SW 247 0 min -6,6 C -5,8 C 0,0 km/h (0 Bft)
23.12.2021 01:05 -5,0 C 5,3 C -5,2 C -5,3 C -6,0 C 0,0 C 88 % 93 % 1022,6 hPa 0,0 l/m 0,0 km/h (0 Bft) W-SW 247 0 min -6,7 C -6,0 C 0,0 km/h (0 Bft)
23.12.2021 01:10 -4,9 C 5,2 C -5,3 C -5,3 C -6,1 C 0,0 C 89 % 93 % 1022,6 hPa 0,0 l/m 0,0 km/h (0 Bft) W-SW 247 0 min -6,4 C -6,1 C 0,0 km/h (0 Bft)
23.12.2021 01:15 -4,9 C 5,2 C -5,3 C -5,3 C -6,1 C 0,0 C 89 % 93 % 1022,6 hPa 0,0 l/m 0,0 km/h (0 Bft) W-SW 247 0 min -6,4 C -6,1 C 0,0 km/h (0 Bft)
23.12.2021 01:20 -5,1 C 5,2 C -5,3 C -5,5 C -6,2 C 0,0 C 89 % 93 % 1022,6 hPa 0,0 l/m 0,0 km/h (0 Bft) W-SW 247 0 min -6,6 C -6,2 C 0,0 km/h (0 Bft)
23.12.2021 01:25 -5,1 C 5,2 C -5,3 C -5,4 C -6,1 C 0,0 C 88 % 93 % 1022,6 hPa 0,0 l/m 0,0 km/h (0 Bft) W-SW 247 0 min -6,8 C -6,1 C 0,0 km/h (0 Bft)
23.12.2021 01:30 -5,2 C 5,2 C -5,4 C -5,5 C -6,0 C 0,0 C 89 % 93 % 1022,3 hPa 0,0 l/m 0,0 km/h (0 Bft) W-SW 247 0 min -6,7 C -6,0 C 0,0 km/h (0 Bft)
23.12.2021 01:35 -5,1 C 5,2 C -5,3 C -5,3 C -5,8 C 0,0 C 89 % 93 % 1022,3 hPa 0,0 l/m 0,0 km/h (0 Bft) W-SW 247 0 min -6,6 C -5,8 C 0,0 km/h (0 Bft)
23.12.2021 01:40 -5,1 C 5,2 C -5,2 C -5,3 C -5,7 C 0,0 C 89 % 94 % 1022,3 hPa 0,0 l/m 0,0 km/h (0 Bft) W-SW 247 0 min -6,6 C -5,7 C 0,0 km/h (0 Bft)
23.12.2021 01:45 -4,9 C 5,2 C -5,0 C -5,1 C -5,5 C 0,0 C 89 % 94 % 1022,3 hPa 0,0 l/m 0,0 km/h (0 Bft) W-SW 247 0 min -6,4 C -5,5 C 0,0 km/h (0 Bft)
23.12.2021 01:50 -4,9 C 5,2 C -5,0 C -5,1 C -5,4 C 0,0 C 89 % 93 % 1022,4 hPa 0,0 l/m 0,0 km/h (0 Bft) W-SW 247 0 min -6,4 C -5,4 C 0,0 km/h (0 Bft)
23.12.2021 01:55 -4,9 C 5,2 C -5,0 C -5,1 C -5,4 C 0,0 C 89 % 94 % 1022,4 hPa 0,0 l/m 0,0 km/h (0 Bft) W-SW 247 0 min -6,4 C -5,4 C 0,0 km/h (0 Bft)
23.12.2021 02:00 -4,9 C 5,2 C -5,0 C -5,1 C -5,4 C 0,0 C 89 % 93 % 1022,4 hPa 0,0 l/m 0,0 km/h (0 Bft) W-SW 247 0 min -6,4 C -5,4 C 0,0 km/h (0 Bft)
23.12.2021 02:05 -4,9 C 5,2 C -5,1 C -5,1 C -5,6 C 0,0 C 89 % 93 % 1022,4 hPa 0,0 l/m 0,0 km/h (0 Bft) W-SW 247 0 min -6,4 C -5,6 C 0,0 km/h (0 Bft)
23.12.2021 02:10 -4,9 C 5,2 C -5,1 C -5,1 C -5,5 C 0,0 C 89 % 94 % 1022,2 hPa 0,0 l/m 0,0 km/h (0 Bft) W-SW 247 0 min -6,4 C -5,5 C 0,0 km/h (0 Bft)
23.12.2021 02:15 -4,9 C 5,2 C -5,0 C -5,1 C -5,5 C 0,0 C 89 % 94 % 1022,2 hPa 0,0 l/m 0,0 km/h (0 Bft) W-SW 247 0 min -6,4 C -5,5 C 0,0 km/h (0 Bft)
23.12.2021 02:20 -4,9 C 5,2 C -5,0 C -5,1 C -5,5 C 0,0 C 89 % 93 % 1022,2 hPa 0,0 l/m 0,0 km/h (0 Bft) W-SW 247 0 min -6,4 C -5,5 C 0,0 km/h (0 Bft)
23.12.2021 02:25 -4,9 C 5,2 C -5,0 C -5,1 C -5,5 C 0,0 C 89 % 93 % 1022,2 hPa 0,0 l/m 0,0 km/h (0 Bft) W-SW 247 0 min -6,4 C -5,5 C 0,0 km/h (0 Bft)
23.12.2021 02:30 -4,9 C 5,1 C -5,1 C -5,1 C -5,6 C 0,0 C 89 % 93 % 1022,4 hPa 0,0 l/m 0,0 km/h (0 Bft) W-SW 247 0 min -6,4 C -5,6 C 0,0 km/h (0 Bft)
23.12.2021 02:35 -4,9 C 5,2 C -5,0 C -5,1 C -5,6 C 0,0 C 89 % 93 % 1022,4 hPa 0,0 l/m 0,0 km/h (0 Bft) W-SW 247 0 min -6,4 C -5,6 C 0,0 km/h (0 Bft)
23.12.2021 02:40 -4,9 C 5,1 C -5,0 C -5,1 C -5,6 C 0,0 C 89 % 93 % 1022,4 hPa 0,0 l/m 0,0 km/h (0 Bft) W-SW 247 0 min -6,4 C -5,6 C 0,0 km/h (0 Bft)
23.12.2021 02:45 -4,9 C 5,2 C -5,1 C -5,1 C -5,6 C 0,0 C 89 % 93 % 1022,4 hPa 0,0 l/m 0,0 km/h (0 Bft) W-SW 247 0 min -6,4 C -5,6 C 0,0 km/h (0 Bft)
23.12.2021 02:50 -4,9 C 5,2 C -5,1 C -5,1 C -5,6 C 0,0 C 89 % 93 % 1022,0 hPa 0,0 l/m 0,0 km/h (0 Bft) W-SW 247 0 min -6,4 C -5,6 C 0,0 km/h (0 Bft)
23.12.2021 02:55 -4,9 C 5,2 C -5,1 C -5,1 C -5,6 C 0,0 C 89 % 94 % 1022,0 hPa 0,0 l/m 0,0 km/h (0 Bft) W-SW 247 0 min -6,4 C -5,6 C 0,0 km/h (0 Bft)
23.12.2021 03:00 -4,9 C 5,2 C -5,0 C -5,1 C -5,5 C 0,0 C 89 % 94 % 1022,0 hPa 0,0 l/m 0,0 km/h (0 Bft) W-SW 247 0 min -6,4 C -5,5 C 0,0 km/h (0 Bft)
23.12.2021 03:05 -4,9 C 5,1 C -4,9 C -5,0 C -5,3 C 0,0 C 89 % 94 % 1022,0 hPa 0,0 l/m 0,0 km/h (0 Bft) W-SW 247 0 min -6,4 C -5,3 C 0,0 km/h (0 Bft)
23.12.2021 03:10 -4,9 C 5,1 C -4,9 C -5,0 C -5,2 C 0,0 C 89 % 93 % 1021,2 hPa 0,0 l/m 0,0 km/h (0 Bft) W-SW 247 0 min -6,4 C -5,2 C 0,0 km/h (0 Bft)
23.12.2021 03:15 -4,9 C 5,1 C -4,9 C -5,0 C -5,2 C 0,0 C 89 % 93 % 1021,2 hPa 0,0 l/m 0,0 km/h (0 Bft) W-SW 247 0 min -6,4 C -5,2 C 0,0 km/h (0 Bft)
23.12.2021 03:20 -4,9 C 5,1 C -4,9 C -5,0 C -5,2 C 0,0 C 89 % 94 % 1021,2 hPa 0,0 l/m 0,0 km/h (0 Bft) W-SW 247 0 min -6,4 C -5,2 C 0,0 km/h (0 Bft)
23.12.2021 03:25 -4,8 C 5,1 C -4,8 C -4,9 C -5,2 C 0,0 C 89 % 93 % 1021,2 hPa 0,0 l/m 0,0 km/h (0 Bft) W-SW 247 0 min -6,3 C -5,2 C 0,0 km/h (0 Bft)
23.12.2021 03:30 -4,8 C 5,0 C -4,8 C -4,9 C -5,2 C 0,0 C 89 % 93 % 1021,2 hPa 0,0 l/m 0,0 km/h (0 Bft) W-SW 247 0 min -6,3 C -5,2 C 0,0 km/h (0 Bft)
23.12.2021 03:35 -4,8 C 5,1 C -4,8 C -4,9 C -5,2 C 0,0 C 89 % 93 % 1021,2 hPa 0,0 l/m 0,0 km/h (0 Bft) W-SW 247 0 min -6,3 C -5,2 C 0,0 km/h (0 Bft)
23.12.2021 03:40 -4,8 C 5,0 C -4,8 C -4,9 C -5,2 C 0,0 C 89 % 93 % 1021,2 hPa 0,0 l/m 0,0 km/h (0 Bft) W-SW 247 0 min -6,3 C -5,2 C 0,0 km/h (0 Bft)
23.12.2021 03:45 -4,8 C 5,0 C -4,8 C -5,0 C -5,3 C 0,0 C 89 % 93 % 1021,2 hPa 0,0 l/m 0,0 km/h (0 Bft) W-SW 247 0 min -6,3 C -5,3 C 0,0 km/h (0 Bft)
23.12.2021 03:50 -4,8 C 5,0 C -4,8 C -5,0 C -5,3 C 0,0 C 89 % 93 % 1021,2 hPa 0,0 l/m 0,0 km/h (0 Bft) W-SW 247 0 min -6,3 C -5,3 C 0,0 km/h (0 Bft)
23.12.2021 03:55 -4,8 C 5,0 C -4,9 C -5,0 C -5,4 C 0,0 C 89 % 93 % 1021,2 hPa 0,0 l/m 0,0 km/h (0 Bft) W-SW 247 0 min -6,3 C -5,4 C 0,0 km/h (0 Bft)
23.12.2021 04:00 -4,8 C 5,1 C -4,9 C -5,0 C -5,5 C 0,0 C 89 % 93 % 1021,2 hPa 0,0 l/m 0,0 km/h (0 Bft) W-SW 247 0 min -6,3 C -5,5 C 0,0 km/h (0 Bft)
23.12.2021 04:05 -4,7 C 5,1 C -4,9 C -5,0 C -5,5 C 0,0 C 89 % 93 % 1021,2 hPa 0,0 l/m 0,0 km/h (0 Bft) W-SW 247 0 min -6,2 C -5,5 C 0,0 km/h (0 Bft)
23.12.2021 04:10 -4,8 C 5,1 C -4,9 C -5,0 C -5,4 C 0,0 C 89 % 93 % 1020,2 hPa 0,0 l/m 0,0 km/h (0 Bft) W-SW 247 0 min -6,3 C -5,4 C 0,0 km/h (0 Bft)
23.12.2021 04:15 -4,8 C 5,1 C -4,9 C -5,0 C -5,5 C 0,0 C 89 % 93 % 1020,2 hPa 0,0 l/m 0,0 km/h (0 Bft) W-SW 247 0 min -6,3 C -5,5 C 0,0 km/h (0 Bft)
23.12.2021 04:20 -4,8 C 5,1 C -5,0 C -5,1 C -5,6 C 0,0 C 89 % 93 % 1020,2 hPa 0,0 l/m 0,0 km/h (0 Bft) W-SW 247 0 min -6,3 C -5,6 C 0,0 km/h (0 Bft)
23.12.2021 04:25 -4,9 C 5,1 C -5,1 C -5,2 C -5,7 C 0,0 C 89 % 93 % 1020,2 hPa 0,0 l/m 0,0 km/h (0 Bft) W-SW 247 0 min -6,4 C -5,7 C 0,0 km/h (0 Bft)
23.12.2021 04:30 -4,9 C 5,1 C -5,1 C -5,2 C -5,7 C 0,0 C 89 % 93 % 1020,1 hPa 0,0 l/m 0,0 km/h (0 Bft) W-SW 247 0 min -6,4 C -5,7 C 0,0 km/h (0 Bft)
23.12.2021 04:35 -4,9 C 5,1 C -5,2 C -5,2 C -5,8 C 0,0 C 89 % 93 % 1020,1 hPa 0,0 l/m 0,0 km/h (0 Bft) W-SW 247 0 min -6,4 C -5,8 C 0,0 km/h (0 Bft)
23.12.2021 04:40 -4,9 C 5,0 C -5,1 C -5,2 C -5,8 C 0,0 C 89 % 93 % 1020,1 hPa 0,0 l/m 0,0 km/h (0 Bft) W-SW 247 0 min -6,4 C -5,8 C 0,0 km/h (0 Bft)
23.12.2021 04:45 -4,9 C 5,0 C -5,1 C -5,2 C -5,8 C 0,0 C 89 % 93 % 1020,1 hPa 0,0 l/m 0,0 km/h (0 Bft) W-SW 247 0 min -6,4 C -5,8 C 0,0 km/h (0 Bft)
23.12.2021 04:50 -4,9 C 5,1 C -5,1 C -5,2 C -5,8 C 0,0 C 89 % 93 % 1019,3 hPa 0,0 l/m 0,0 km/h (0 Bft) W-SW 247 0 min -6,4 C -5,8 C 0,0 km/h (0 Bft)
23.12.2021 04:55 -4,9 C 5,1 C -5,1 C -5,2 C -5,7 C 0,0 C 89 % 93 % 1019,3 hPa 0,0 l/m 0,0 km/h (0 Bft) W-SW 247 0 min -6,4 C -5,7 C 0,0 km/h (0 Bft)
23.12.2021 05:00 -4,9 C 5,0 C -5,1 C -5,1 C -5,6 C 0,0 C 89 % 93 % 1019,3 hPa 0,0 l/m 0,0 km/h (0 Bft) W-SW 247 0 min -6,4 C -5,6 C 0,0 km/h (0 Bft)
23.12.2021 05:05 -4,9 C 5,0 C -5,0 C -5,1 C -5,4 C 0,0 C 89 % 93 % 1019,3 hPa 0,0 l/m 0,0 km/h (0 Bft) W-SW 247 0 min -6,4 C -5,4 C 0,0 km/h (0 Bft)
23.12.2021 05:10 -5,0 C 5,0 C -4,9 C -5,1 C -5,4 C 0,0 C 89 % 94 % 1018,9 hPa 0,0 l/m 0,0 km/h (0 Bft) W-SW 247 0 min -6,5 C -5,4 C 0,0 km/h (0 Bft)
23.12.2021 05:15 -5,0 C 5,0 C -4,9 C -5,1 C -5,4 C 0,0 C 89 % 94 % 1018,9 hPa 0,0 l/m 0,0 km/h (0 Bft) W-SW 247 0 min -6,5 C -5,4 C 0,0 km/h (0 Bft)
23.12.2021 05:20 -4,9 C 5,0 C -4,9 C -5,1 C -5,4 C 0,0 C 89 % 94 % 1018,9 hPa 0,0 l/m 0,0 km/h (0 Bft) W-SW 247 0 min -6,4 C -5,4 C 0,0 km/h (0 Bft)
23.12.2021 05:25 -4,9 C 5,0 C -4,8 C -5,0 C -5,2 C 0,0 C 89 % 94 % 1018,9 hPa 0,0 l/m 0,0 km/h (0 Bft) W-SW 247 0 min -6,4 C -5,2 C 0,0 km/h (0 Bft)
23.12.2021 05:30 -4,9 C 5,0 C -4,7 C -5,0 C -5,1 C 0,0 C 89 % 94 % 1018,6 hPa 0,0 l/m 0,0 km/h (0 Bft) W-SW 247 0 min -6,4 C -5,1 C 0,0 km/h (0 Bft)
23.12.2021 05:35 -4,9 C 4,9 C -4,6 C -4,9 C -5,0 C 0,0 C 89 % 94 % 1018,6 hPa 0,0 l/m 0,0 km/h (0 Bft) W-SW 247 0 min -6,4 C -5,0 C 0,0 km/h (0 Bft)
23.12.2021 05:40 -4,9 C 4,9 C -4,5 C -4,9 C -5,0 C 0,0 C 89 % 94 % 1018,6 hPa 0,0 l/m 0,0 km/h (0 Bft) W-SW 247 0 min -6,4 C -5,0 C 0,0 km/h (0 Bft)
23.12.2021 05:45 -4,9 C 4,9 C -4,5 C -4,9 C -4,9 C 0,0 C 89 % 93 % 1018,6 hPa 0,0 l/m 0,0 km/h (0 Bft) W-SW 247 0 min -6,4 C -4,9 C 0,0 km/h (0 Bft)
23.12.2021 05:50 -4,8 C 4,9 C -4,5 C -4,8 C -4,9 C 0,0 C 89 % 94 % 1018,4 hPa 0,0 l/m 0,0 km/h (0 Bft) W-SW 247 0 min -6,3 C -4,9 C 0,0 km/h (0 Bft)
23.12.2021 05:55 -4,8 C 4,9 C -4,5 C -4,8 C -4,8 C 0,0 C 89 % 94 % 1018,4 hPa 0,0 l/m 0,0 km/h (0 Bft) W-SW 247 0 min -6,3 C -4,8 C 0,0 km/h (0 Bft)
23.12.2021 06:00 -4,7 C 4,9 C -4,4 C -4,7 C -4,8 C 0,0 C 89 % 94 % 1018,4 hPa 0,0 l/m 0,0 km/h (0 Bft) W-SW 247 0 min -6,2 C -4,8 C 0,0 km/h (0 Bft)
23.12.2021 06:05 -4,7 C 4,9 C -4,3 C -4,7 C -4,7 C 0,0 C 89 % 94 % 1018,4 hPa 0,0 l/m 0,0 km/h (0 Bft) W-SW 247 0 min -6,2 C -4,7 C 0,0 km/h (0 Bft)
23.12.2021 06:10 -4,5 C 4,9 C -4,3 C -4,5 C -4,6 C 0,0 C 89 % 94 % 1018,4 hPa 0,0 l/m 0,0 km/h (0 Bft) W-SW 247 0 min -6,0 C -4,6 C 0,0 km/h (0 Bft)
23.12.2021 06:15 -4,6 C 4,9 C -4,2 C -4,6 C -4,6 C 0,0 C 89 % 94 % 1018,4 hPa 0,0 l/m 0,0 km/h (0 Bft) W-SW 247 0 min -6,1 C -4,6 C 0,0 km/h (0 Bft)
23.12.2021 06:20 -4,5 C 4,9 C -4,2 C -4,5 C -4,5 C 0,0 C 89 % 93 % 1018,4 hPa 0,0 l/m 0,0 km/h (0 Bft) W-SW 247 0 min -6,0 C -4,5 C 0,0 km/h (0 Bft)
23.12.2021 06:25 -4,5 C 4,9 C -4,2 C -4,5 C -4,5 C 0,0 C 89 % 93 % 1018,4 hPa 0,0 l/m 0,0 km/h (0 Bft) W-SW 247 0 min -6,0 C -4,5 C 0,0 km/h (0 Bft)
23.12.2021 06:30 -4,5 C 4,9 C -4,2 C -4,5 C -4,6 C 0,0 C 89 % 93 % 1017,6 hPa 0,0 l/m 0,0 km/h (0 Bft) W-SW 247 0 min -6,0 C -4,6 C 0,0 km/h (0 Bft)
23.12.2021 06:35 -4,5 C 4,8 C -4,2 C -4,5 C -4,6 C 0,0 C 89 % 93 % 1017,6 hPa 0,0 l/m 0,0 km/h (0 Bft) W-SW 247 0 min -6,0 C -4,6 C 0,0 km/h (0 Bft)
23.12.2021 06:40 -4,5 C 4,9 C -4,1 C -4,5 C -4,6 C 0,0 C 89 % 93 % 1017,6 hPa 0,0 l/m 0,0 km/h (0 Bft) W-SW 247 0 min -6,0 C -4,6 C 0,0 km/h (0 Bft)
23.12.2021 06:45 -4,5 C 4,9 C -4,1 C -4,5 C -4,5 C 0,0 C 89 % 93 % 1017,6 hPa 0,0 l/m 0,0 km/h (0 Bft) W-SW 247 0 min -6,0 C -4,5 C 0,0 km/h (0 Bft)
23.12.2021 06:50 -4,3 C 4,9 C -4,1 C -4,3 C -4,4 C 0,0 C 89 % 93 % 1017,4 hPa 0,0 l/m 0,0 km/h (0 Bft) W-SW 247 0 min -5,8 C -4,4 C 0,0 km/h (0 Bft)
23.12.2021 06:55 -4,4 C 4,8 C -4,1 C -4,4 C -4,4 C 0,0 C 89 % 93 % 1017,4 hPa 0,0 l/m 0,0 km/h (0 Bft) W-SW 247 0 min -5,9 C -4,4 C 0,0 km/h (0 Bft)
23.12.2021 07:00 -4,4 C 4,8 C -4,0 C -4,4 C -4,4 C 0,0 C 89 % 93 % 1017,4 hPa 0,0 l/m 0,0 km/h (0 Bft) W-SW 247 0 min -5,9 C -4,4 C 0,0 km/h (0 Bft)
23.12.2021 07:05 -4,3 C 4,8 C -3,9 C -4,3 C -4,4 C 0,0 C 89 % 93 % 1017,4 hPa 0,0 l/m 0,0 km/h (0 Bft) W-SW 247 0 min -5,8 C -4,4 C 0,0 km/h (0 Bft)
23.12.2021 07:10 -4,3 C 4,8 C -3,9 C -4,3 C -4,4 C 0,0 C 89 % 93 % 1017,1 hPa 0,0 l/m 0,0 km/h (0 Bft) W-SW 247 0 min -5,8 C -4,4 C 0,0 km/h (0 Bft)
23.12.2021 07:15 -4,1 C 4,8 C -3,9 C -4,2 C -4,3 C 0,0 C 89 % 93 % 1017,1 hPa 0,0 l/m 0,0 km/h (0 Bft) W-SW 247 0 min -5,6 C -4,3 C 0,0 km/h (0 Bft)
23.12.2021 07:20 -4,1 C 4,8 C -3,9 C -4,1 C -4,2 C 0,0 C 89 % 93 % 1017,1 hPa 0,0 l/m 0,0 km/h (0 Bft) W-SW 247 0 min -5,6 C -4,2 C 0,0 km/h (0 Bft)
23.12.2021 07:25 -4,1 C 4,8 C -3,9 C -4,1 C -4,2 C 0,0 C 89 % 93 % 1017,1 hPa 0,0 l/m 0,0 km/h (0 Bft) W-SW 247 0 min -5,6 C -4,2 C 0,0 km/h (0 Bft)
23.12.2021 07:30 -4,1 C 4,8 C -3,8 C -4,1 C -4,2 C 0,0 C 89 % 93 % 1016,8 hPa 0,0 l/m 0,0 km/h (0 Bft) W-SW 247 0 min -5,6 C -4,2 C 0,0 km/h (0 Bft)
23.12.2021 07:35 -4,1 C 4,8 C -3,7 C -4,1 C -4,2 C 0,0 C 89 % 93 % 1016,8 hPa 0,0 l/m 0,0 km/h (0 Bft) W-SW 247 0 min -5,6 C -4,2 C 0,0 km/h (0 Bft)
23.12.2021 07:40 -4,1 C 4,8 C -3,7 C -4,1 C -4,2 C 0,0 C 89 % 93 % 1016,8 hPa 0,0 l/m 0,0 km/h (0 Bft) W-SW 247 0 min -5,6 C -4,2 C 0,0 km/h (0 Bft)
23.12.2021 07:45 -4,1 C 4,8 C -3,7 C -4,1 C -4,1 C 0,0 C 89 % 93 % 1016,8 hPa 0,0 l/m 0,0 km/h (0 Bft) W-SW 247 0 min -5,6 C -4,1 C 0,0 km/h (0 Bft)
23.12.2021 07:50 -4,1 C 4,8 C -3,7 C -4,1 C -4,1 C 0,0 C 89 % 93 % 1017,4 hPa 0,0 l/m 0,0 km/h (0 Bft) W-SW 247 0 min -5,6 C -4,1 C 0,0 km/h (0 Bft)
23.12.2021 07:55 -4,1 C 4,8 C -3,7 C -4,0 C -4,0 C 0,1 C 89 % 93 % 1017,4 hPa 0,0 l/m 0,0 km/h (0 Bft) W-SW 247 0 min -5,6 C -4,0 C 0,0 km/h (0 Bft)
23.12.2021 08:00 -4,1 C 4,8 C -3,7 C -4,0 C -4,0 C 0,1 C 89 % 93 % 1017,4 hPa 0,0 l/m 0,0 km/h (0 Bft) W-SW 247 0 min -5,6 C -4,0 C 0,0 km/h (0 Bft)
23.12.2021 08:05 -4,1 C 4,8 C -3,6 C -3,9 C -3,9 C 0,2 C 89 % 93 % 1017,4 hPa 0,0 l/m 0,0 km/h (0 Bft) W-SW 247 0 min -5,6 C -3,9 C 0,0 km/h (0 Bft)
23.12.2021 08:10 -4,0 C 4,8 C -3,5 C -3,9 C -3,9 C 0,1 C 89 % 93 % 1017,0 hPa 0,0 l/m 0,0 km/h (0 Bft) W-SW 247 0 min -5,5 C -3,9 C 0,0 km/h (0 Bft)
23.12.2021 08:15 -3,9 C 4,8 C -3,5 C -3,8 C -3,8 C 0,1 C 89 % 93 % 1017,0 hPa 0,0 l/m 0,0 km/h (0 Bft) W-SW 247 0 min -5,4 C -3,8 C 0,0 km/h (0 Bft)
23.12.2021 08:20 -4,0 C 4,8 C -3,5 C -3,7 C -3,7 C 0,3 C 89 % 93 % 1017,0 hPa 0,0 l/m 0,0 km/h (0 Bft) W-SW 247 0 min -5,5 C -3,7 C 0,0 km/h (0 Bft)
23.12.2021 08:25 -3,9 C 4,8 C -3,3 C -3,7 C -3,7 C 0,2 C 89 % 94 % 1017,0 hPa 0,0 l/m 0,0 km/h (0 Bft) W-SW 247 5 min -5,4 C -3,7 C 0,0 km/h (0 Bft)
23.12.2021 08:30 -3,7 C 4,8 C -3,3 C -3,6 C -3,6 C 0,1 C 89 % 94 % 1016,8 hPa 0,0 l/m 0,0 km/h (0 Bft) W-SW 247 0 min -5,2 C -3,6 C 0,0 km/h (0 Bft)
23.12.2021 08:35 -3,7 C 4,8 C -3,2 C -3,5 C -3,5 C 0,2 C 89 % 94 % 1016,8 hPa 0,0 l/m 0,0 km/h (0 Bft) W-SW 247 0 min -5,2 C -3,5 C 0,0 km/h (0 Bft)
23.12.2021 08:40 -3,7 C 4,8 C -3,2 C -3,4 C -3,4 C 0,3 C 89 % 94 % 1016,8 hPa 0,0 l/m 0,0 km/h (0 Bft) W-SW 247 0 min -5,2 C -3,4 C 0,0 km/h (0 Bft)
23.12.2021 08:45 -3,7 C 4,8 C -3,2 C -3,4 C -3,4 C 0,3 C 89 % 93 % 1016,8 hPa 0,0 l/m 0,0 km/h (0 Bft) W-SW 247 0 min -5,2 C -3,4 C 0,0 km/h (0 Bft)
23.12.2021 08:50 -3,7 C 4,8 C -3,1 C -3,4 C -3,4 C 0,3 C 89 % 94 % 1017,2 hPa 0,0 l/m 0,0 km/h (0 Bft) W-SW 247 0 min -5,2 C -3,4 C 0,0 km/h (0 Bft)
23.12.2021 08:55 -3,5 C 4,8 C -3,1 C -3,3 C -3,3 C 0,2 C 89 % 93 % 1017,2 hPa 0,0 l/m 0,0 km/h (0 Bft) W-SW 247 0 min -5,0 C -3,3 C 0,0 km/h (0 Bft)
23.12.2021 09:00 -3,5 C 4,8 C -3,1 C -3,3 C -3,3 C 0,2 C 89 % 93 % 1017,2 hPa 0,0 l/m 0,0 km/h (0 Bft) W-SW 247 0 min -5,0 C -3,3 C 0,0 km/h (0 Bft)
23.12.2021 09:05 -3,6 C 4,8 C -3,0 C -3,2 C -3,2 C 0,4 C 89 % 93 % 1017,2 hPa 0,0 l/m 0,0 km/h (0 Bft) W-SW 247 0 min -5,1 C -3,2 C 0,0 km/h (0 Bft)
23.12.2021 09:10 -3,5 C 4,8 C -2,9 C -3,1 C -3,1 C 0,4 C 89 % 93 % 1017,0 hPa 0,0 l/m 0,0 km/h (0 Bft) W-SW 247 0 min -5,0 C -3,1 C 0,0 km/h (0 Bft)
23.12.2021 09:15 -3,3 C 4,8 C -2,9 C -3,1 C -3,1 C 0,2 C 89 % 93 % 1017,0 hPa 0,0 l/m 0,0 km/h (0 Bft) O-NO 67 0 min -4,8 C -3,1 C 0,0 km/h (0 Bft)
23.12.2021 09:20 -3,3 C 4,8 C -2,8 C -3,0 C -3,0 C 0,3 C 89 % 93 % 1017,0 hPa 0,0 l/m 0,0 km/h (0 Bft) O-NO 67 0 min -4,8 C -3,0 C 0,0 km/h (0 Bft)
23.12.2021 09:25 -3,3 C 4,8 C -2,7 C -2,9 C -2,9 C 0,4 C 89 % 93 % 1017,0 hPa 0,0 l/m 0,0 km/h (0 Bft) W-SW 247 0 min -4,8 C -2,9 C 0,0 km/h (0 Bft)
23.12.2021 09:30 -3,3 C 4,8 C -2,7 C -2,9 C -2,9 C 0,4 C 89 % 93 % 1016,6 hPa 0,0 l/m 0,0 km/h (0 Bft) W-SW 247 0 min -4,8 C -2,9 C 0,0 km/h (0 Bft)
23.12.2021 09:35 -3,3 C 4,8 C -2,6 C -2,8 C -2,8 C 0,5 C 89 % 93 % 1016,6 hPa 0,0 l/m 0,0 km/h (0 Bft) W-SW 247 0 min -4,8 C -2,8 C 0,0 km/h (0 Bft)
23.12.2021 09:40 -3,1 C 4,8 C -2,6 C -2,8 C -2,8 C 0,3 C 89 % 93 % 1016,6 hPa 0,0 l/m 0,0 km/h (0 Bft) SW 225 0 min -4,6 C -2,8 C 0,0 km/h (0 Bft)
23.12.2021 09:45 -3,1 C 4,8 C -2,5 C -2,8 C -2,8 C 0,3 C 89 % 93 % 1016,6 hPa 0,0 l/m 0,0 km/h (0 Bft) SW 225 0 min -4,6 C -2,8 C 0,0 km/h (0 Bft)
23.12.2021 09:50 -3,2 C 4,8 C -2,5 C -2,8 C -2,8 C 0,4 C 89 % 93 % 1016,2 hPa 0,0 l/m 0,0 km/h (0 Bft) SW 225 0 min -4,7 C -2,8 C 0,0 km/h (0 Bft)
23.12.2021 09:55 -3,2 C 4,8 C -2,5 C -2,7 C -2,7 C 0,5 C 89 % 93 % 1016,2 hPa 0,0 l/m 0,0 km/h (0 Bft) SW 225 0 min -4,7 C -2,7 C 0,0 km/h (0 Bft)
23.12.2021 10:00 -3,1 C 4,8 C -2,4 C -2,6 C -2,6 C 0,5 C 89 % 93 % 1016,2 hPa 0,0 l/m 0,0 km/h (0 Bft) SW 225 0 min -4,6 C -2,6 C 0,0 km/h (0 Bft)
23.12.2021 10:05 -3,1 C 4,8 C -2,4 C -2,5 C -2,5 C 0,6 C 89 % 93 % 1016,2 hPa 0,0 l/m 0,0 km/h (0 Bft) SW 225 0 min -4,6 C -2,5 C 0,0 km/h (0 Bft)
23.12.2021 10:10 -2,9 C 4,8 C -2,2 C -2,5 C -2,5 C 0,4 C 89 % 93 % 1016,7 hPa 0,0 l/m 0,0 km/h (0 Bft) SW 225 0 min -4,5 C -2,5 C 0,0 km/h (0 Bft)
23.12.2021 10:15 -2,9 C 4,6 C -2,1 C -2,3 C -2,3 C 0,6 C 89 % 93 % 1016,7 hPa 0,0 l/m 0,0 km/h (0 Bft) SW 225 0 min -4,5 C -2,3 C 0,0 km/h (0 Bft)
23.12.2021 10:20 -2,9 C 4,8 C -2,1 C -2,2 C -2,2 C 0,7 C 89 % 93 % 1016,7 hPa 0,0 l/m 0,0 km/h (0 Bft) SW 225 0 min -4,5 C -2,2 C 0,0 km/h (0 Bft)
23.12.2021 10:25 -2,9 C 4,8 C -1,9 C -2,2 C -2,2 C 0,7 C 89 % 93 % 1016,7 hPa 0,0 l/m 0,0 km/h (0 Bft) SW 225 0 min -4,5 C -2,2 C 0,0 km/h (0 Bft)
23.12.2021 10:30 -2,9 C 4,6 C -1,9 C -2,1 C -2,1 C 0,8 C 89 % 93 % 1016,7 hPa 0,0 l/m 0,0 km/h (0 Bft) SW 225 0 min -4,5 C -2,1 C 0,0 km/h (0 Bft)
23.12.2021 10:35 -2,8 C 4,8 C -1,8 C -2,0 C -2,0 C 0,8 C 89 % 93 % 1016,7 hPa 0,0 l/m 0,0 km/h (0 Bft) SW 225 0 min -4,4 C -2,0 C 0,0 km/h (0 Bft)
23.12.2021 10:40 -2,7 C 4,8 C -1,7 C -1,8 C -1,8 C 0,9 C 89 % 93 % 1016,7 hPa 0,0 l/m 0,0 km/h (0 Bft) SW 225 0 min -4,3 C -1,8 C 0,0 km/h (0 Bft)
23.12.2021 10:45 -2,5 C 4,8 C -1,7 C -1,8 C -1,8 C 0,7 C 89 % 93 % 1016,7 hPa 0,0 l/m 0,0 km/h (0 Bft) SW 225 0 min -4,1 C -1,8 C 0,0 km/h (0 Bft)
23.12.2021 10:50 -2,5 C 4,6 C -1,7 C -1,7 C -1,7 C 0,8 C 89 % 93 % 1016,7 hPa 0,0 l/m 0,0 km/h (0 Bft) O 90 0 min -4,1 C -1,7 C 0,0 km/h (0 Bft)
23.12.2021 10:55 -2,5 C 4,6 C -1,6 C -1,7 C -1,7 C 0,8 C 89 % 93 % 1016,7 hPa 0,0 l/m 0,0 km/h (0 Bft) O-SO 112 0 min -4,1 C -1,7 C 0,0 km/h (0 Bft)
23.12.2021 11:00 -2,5 C 4,7 C -1,5 C -1,6 C -1,6 C 0,9 C 89 % 93 % 1016,7 hPa 0,0 l/m 0,0 km/h (0 Bft) O-SO 112 0 min -4,1 C -1,6 C 0,0 km/h (0 Bft)
23.12.2021 11:05 -2,3 C 4,7 C -1,4 C -1,5 C -1,5 C 0,8 C 89 % 93 % 1016,7 hPa 0,0 l/m 0,0 km/h (0 Bft) O-SO 112 0 min -3,9 C -1,5 C 0,0 km/h (0 Bft)
23.12.2021 11:10 -2,3 C 4,6 C -1,4 C -1,5 C -1,5 C 0,8 C 89 % 93 % 1015,6 hPa 0,0 l/m 0,0 km/h (0 Bft) O-SO 112 0 min -3,9 C -1,5 C 0,0 km/h (0 Bft)
23.12.2021 11:15 -2,1 C 4,5 C -1,3 C -1,4 C -1,4 C 0,7 C 89 % 93 % 1015,6 hPa 0,0 l/m 0,0 km/h (0 Bft) SO 135 0 min -3,7 C -1,4 C 0,0 km/h (0 Bft)
23.12.2021 11:20 -2,1 C 4,5 C -1,2 C -1,5 C -1,5 C 0,6 C 89 % 93 % 1015,6 hPa 0,0 l/m 0,0 km/h (0 Bft) O 90 0 min -3,7 C -1,5 C 0,0 km/h (0 Bft)
23.12.2021 11:25 -1,9 C 4,5 C -1,1 C -1,4 C -1,4 C 0,5 C 89 % 92 % 1015,6 hPa 0,0 l/m 0,0 km/h (0 Bft) S 180 0 min -3,5 C -1,4 C 0,0 km/h (0 Bft)
23.12.2021 11:30 -1,9 C 4,5 C -1,0 C -1,4 C -1,4 C 0,5 C 89 % 92 % 1015,2 hPa 0,0 l/m 0,0 km/h (0 Bft) O-NO 67 0 min -3,5 C -1,4 C 0,0 km/h (0 Bft)
23.12.2021 11:35 -1,7 C 4,5 C -0,9 C -1,3 C -1,3 C 0,4 C 89 % 92 % 1015,2 hPa 0,0 l/m 0,0 km/h (0 Bft) O-NO 67 0 min -3,3 C -1,3 C 0,0 km/h (0 Bft)
23.12.2021 11:40 -1,7 C 4,5 C -0,8 C -1,2 C -1,2 C 0,5 C 89 % 92 % 1015,2 hPa 0,0 l/m 0,0 km/h (0 Bft) O-NO 67 0 min -3,3 C -1,2 C 0,0 km/h (0 Bft)
23.12.2021 11:45 -1,3 C 4,5 C -0,6 C -1,1 C -1,1 C 0,2 C 89 % 91 % 1015,2 hPa 0,0 l/m 0,0 km/h (0 Bft) O-NO 67 0 min -2,9 C -1,1 C 0,0 km/h (0 Bft)
23.12.2021 11:50 -1,1 C 4,5 C -0,5 C -1,1 C -1,1 C 0,0 C 89 % 91 % 1015,1 hPa 0,0 l/m 0,0 km/h (0 Bft) O-NO 67 0 min -2,7 C -1,1 C 0,0 km/h (0 Bft)
23.12.2021 11:55 -0,9 C 4,5 C -0,4 C -0,9 C -0,9 C 0,0 C 89 % 91 % 1015,1 hPa 0,0 l/m 0,0 km/h (0 Bft) O-NO 67 0 min -2,5 C -0,9 C 0,0 km/h (0 Bft)
23.12.2021 12:00 -0,9 C 4,5 C -0,4 C -0,9 C -0,9 C 0,0 C 89 % 91 % 1015,1 hPa 0,0 l/m 0,0 km/h (0 Bft) O-NO 67 0 min -2,5 C -0,9 C 0,0 km/h (0 Bft)
23.12.2021 12:05 -0,8 C 4,5 C -0,3 C -0,8 C -0,8 C 0,0 C 89 % 91 % 1015,1 hPa 0,0 l/m 0,0 km/h (0 Bft) O-NO 67 0 min -2,4 C -0,8 C 0,0 km/h (0 Bft)
23.12.2021 12:10 -0,8 C 4,5 C -0,3 C -0,8 C -0,8 C 0,0 C 89 % 91 % 1014,1 hPa 0,0 l/m 0,0 km/h (0 Bft) O-NO 67 0 min -2,4 C -0,8 C 0,0 km/h (0 Bft)
23.12.2021 12:15 -0,3 C 4,6 C -0,1 C -0,4 C -0,6 C 0,0 C 89 % 91 % 1014,1 hPa 0,0 l/m 0,3 km/h (0 Bft) W-SW 247 0 min -1,9 C -0,6 C 2,7 km/h (1 Bft)
23.12.2021 12:20 -0,4 C 4,6 C -0,1 C -0,4 C -0,5 C 0,0 C 89 % 91 % 1014,1 hPa 0,0 l/m 0,3 km/h (0 Bft) S-SW 202 0 min -2,0 C -0,5 C 0,0 km/h (0 Bft)
23.12.2021 12:25 -0,3 C 4,5 C -0,1 C -0,3 C -0,3 C 0,0 C 89 % 91 % 1014,1 hPa 0,0 l/m 0,0 km/h (0 Bft) S 180 0 min -1,9 C -0,3 C 4,7 km/h (1 Bft)
23.12.2021 12:30 -0,1 C 4,5 C 0,1 C -0,1 C -0,2 C 0,0 C 89 % 91 % 1013,8 hPa 0,0 l/m 0,6 km/h (0 Bft) S 180 0 min -1,7 C -0,2 C 5,5 km/h (1 Bft)
23.12.2021 12:35 0,3 C 4,5 C 0,3 C 0,2 C 0,1 C 0,0 C 89 % 90 % 1013,8 hPa 0,0 l/m 1,3 km/h (1 Bft) SO 135 0 min -1,3 C 0,1 C 0,0 km/h (0 Bft)
23.12.2021 12:40 0,4 C 4,5 C 0,5 C 0,4 C 0,3 C 0,0 C 89 % 89 % 1013,8 hPa 0,0 l/m 1,0 km/h (0 Bft) O-SO 112 0 min -1,2 C 0,3 C 3,1 km/h (1 Bft)
23.12.2021 12:45 0,8 C 4,5 C 0,7 C 0,7 C 0,5 C 0,0 C 89 % 89 % 1013,8 hPa 0,0 l/m 0,5 km/h (0 Bft) NO 45 0 min -0,8 C 0,5 C 0,0 km/h (0 Bft)
23.12.2021 12:50 0,9 C 4,5 C 0,9 C 0,8 C 0,7 C 0,0 C 89 % 89 % 1013,8 hPa 0,0 l/m 0,6 km/h (0 Bft) S-SW 202 0 min -0,7 C 0,7 C 0,0 km/h (0 Bft)
23.12.2021 12:55 1,2 C 4,4 C 1,1 C 1,1 C 1,0 C 0,0 C 89 % 88 % 1013,8 hPa 0,0 l/m 1,8 km/h (1 Bft) S-SO 157 0 min -0,4 C 1,0 C 15,0 km/h (3 Bft)
23.12.2021 13:00 1,5 C 4,4 C 1,2 C 1,4 C 1,3 C 0,0 C 88 % 88 % 1013,8 hPa 0,0 l/m 1,9 km/h (1 Bft) SO 135 0 min -0,3 C 1,3 C 5,1 km/h (1 Bft)
23.12.2021 13:05 1,6 C 4,4 C 1,4 C 1,6 C 1,6 C 0,0 C 88 % 87 % 1013,8 hPa 0,0 l/m 2,1 km/h (1 Bft) SO 135 0 min -0,2 C 1,6 C 1,8 km/h (1 Bft)
23.12.2021 13:10 1,6 C 4,4 C 1,5 C 1,7 C 1,7 C 0,1 C 87 % 86 % 1013,0 hPa 0,0 l/m 2,7 km/h (1 Bft) S 180 0 min -0,3 C 1,7 C 2,4 km/h (1 Bft)
23.12.2021 13:15 1,7 C 4,4 C 1,5 C 2,0 C 2,0 C 0,3 C 87 % 86 % 1013,0 hPa 0,0 l/m 2,3 km/h (1 Bft) O-SO 112 0 min -0,2 C 2,0 C 8,0 km/h (2 Bft)
23.12.2021 13:20 1,7 C 4,4 C 1,5 C 2,1 C 2,1 C 0,4 C 86 % 86 % 1013,0 hPa 0,0 l/m 1,9 km/h (1 Bft) S 180 0 min -0,4 C 2,1 C 5,5 km/h (1 Bft)
23.12.2021 13:25 1,9 C 4,4 C 1,6 C 2,3 C 2,3 C 0,4 C 86 % 86 % 1013,0 hPa 0,0 l/m 2,4 km/h (1 Bft) N-NO 22 0 min -0,2 C 2,3 C 3,1 km/h (1 Bft)
23.12.2021 13:30 1,9 C 4,4 C 1,5 C 2,2 C 2,2 C 0,3 C 85 % 85 % 1012,8 hPa 0,0 l/m 2,9 km/h (1 Bft) S-SO 157 0 min -0,3 C 2,2 C 4,2 km/h (1 Bft)
23.12.2021 13:35 1,9 C 4,4 C 1,5 C 2,3 C 2,3 C 0,4 C 84 % 85 % 1012,8 hPa 0,0 l/m 2,7 km/h (1 Bft) S-SO 157 0 min -0,5 C 2,3 C 1,6 km/h (1 Bft)
23.12.2021 13:40 1,9 C 4,4 C 1,6 C 2,2 C 2,2 C 0,3 C 84 % 85 % 1012,8 hPa 0,0 l/m 3,2 km/h (1 Bft) W-SW 247 0 min -0,5 C 2,2 C 11,3 km/h (2 Bft)
23.12.2021 13:45 1,9 C 4,4 C 1,6 C 1,9 C 1,9 C 0,0 C 83 % 85 % 1012,8 hPa 0,0 l/m 3,7 km/h (1 Bft) S-SO 157 0 min -0,7 C 1,9 C 5,8 km/h (2 Bft)
23.12.2021 13:50 2,0 C 4,4 C 1,6 C 1,8 C 1,4 C 0,0 C 82 % 84 % 1012,0 hPa 0,0 l/m 4,7 km/h (1 Bft) S 180 0 min -0,7 C 0,1 C 1,9 km/h (1 Bft)
23.12.2021 13:55 2,0 C 4,4 C 1,6 C 1,8 C 1,4 C 0,0 C 82 % 84 % 1012,0 hPa 0,0 l/m 4,5 km/h (1 Bft) SW 225 0 min -0,7 C 1,4 C 2,3 km/h (1 Bft)
23.12.2021 14:00 2,0 C 4,4 C 1,7 C 2,0 C 2,0 C 0,0 C 82 % 84 % 1012,0 hPa 0,0 l/m 3,7 km/h (1 Bft) S-SO 157 0 min -0,7 C 2,0 C 5,6 km/h (1 Bft)
23.12.2021 14:05 2,1 C 4,4 C 1,7 C 2,0 C 1,8 C 0,0 C 81 % 83 % 1012,0 hPa 0,0 l/m 4,0 km/h (1 Bft) S-SO 157 0 min -0,8 C 1,8 C 8,7 km/h (2 Bft)
23.12.2021 14:10 2,1 C 4,4 C 1,7 C 1,9 C 1,4 C 0,0 C 81 % 83 % 1011,9 hPa 0,0 l/m 5,1 km/h (1 Bft) W 270 0 min -0,8 C -0,0 C 9,7 km/h (2 Bft)
23.12.2021 14:15 2,1 C 4,4 C 1,7 C 1,9 C 1,6 C 0,0 C 81 % 83 % 1011,9 hPa 0,0 l/m 4,7 km/h (1 Bft) W-SW 247 0 min -0,8 C 0,4 C 3,7 km/h (1 Bft)
23.12.2021 14:20 2,1 C 4,4 C 1,7 C 2,7 C 2,7 C 0,6 C 81 % 83 % 1011,9 hPa 0,0 l/m 2,7 km/h (1 Bft) W 270 0 min -0,8 C 2,7 C 5,8 km/h (2 Bft)
23.12.2021 14:25 2,1 C 4,4 C 1,8 C 2,7 C 2,7 C 0,6 C 80 % 83 % 1011,9 hPa 0,0 l/m 2,7 km/h (1 Bft) S-SO 157 0 min -1,0 C 2,7 C 7,7 km/h (2 Bft)
23.12.2021 14:30 2,3 C 4,4 C 1,8 C 2,7 C 2,7 C 0,4 C 80 % 83 % 1011,7 hPa 0,0 l/m 2,7 km/h (1 Bft) S-SW 202 0 min -0,8 C 2,7 C 0,0 km/h (0 Bft)
23.12.2021 14:35 2,3 C 4,4 C 1,8 C 2,8 C 2,8 C 0,5 C 80 % 83 % 1011,7 hPa 0,0 l/m 2,4 km/h (1 Bft) S 180 0 min -0,8 C 2,8 C 2,9 km/h (1 Bft)
23.12.2021 14:40 2,3 C 4,6 C 1,9 C 2,8 C 2,8 C 0,5 C 80 % 83 % 1011,7 hPa 0,0 l/m 2,4 km/h (1 Bft) W 270 0 min -0,8 C 2,8 C 3,5 km/h (1 Bft)
23.12.2021 14:45 2,3 C 4,6 C 1,9 C 2,7 C 2,7 C 0,4 C 79 % 82 % 1011,7 hPa 0,0 l/m 3,1 km/h (1 Bft) W-SW 247 0 min -1,0 C 2,7 C 3,2 km/h (1 Bft)
23.12.2021 14:50 2,3 C 4,5 C 1,9 C 2,7 C 2,7 C 0,4 C 79 % 82 % 1011,7 hPa 0,0 l/m 3,2 km/h (1 Bft) SO 135 0 min -1,0 C 2,7 C 0,0 km/h (0 Bft)
23.12.2021 14:55 2,4 C 4,5 C 1,9 C 3,0 C 3,0 C 0,6 C 79 % 82 % 1011,7 hPa 0,0 l/m 2,3 km/h (1 Bft) W 270 0 min -0,9 C 3,0 C 7,1 km/h (2 Bft)
23.12.2021 15:00 2,5 C 4,5 C 1,9 C 3,0 C 3,0 C 0,5 C 79 % 82 % 1011,7 hPa 0,0 l/m 2,3 km/h (1 Bft) SW 225 0 min -0,8 C 3,0 C 3,1 km/h (1 Bft)
23.12.2021 15:05 2,4 C 4,5 C 2,0 C 3,0 C 3,0 C 0,6 C 79 % 81 % 1011,7 hPa 0,0 l/m 2,3 km/h (1 Bft) S-SO 157 0 min -0,9 C 3,0 C 15,6 km/h (3 Bft)
23.12.2021 15:10 2,4 C 4,5 C 2,1 C 3,0 C 3,0 C 0,6 C 78 % 81 % 1011,4 hPa 0,0 l/m 2,4 km/h (1 Bft) S-SO 157 0 min -1,0 C 3,0 C 11,6 km/h (2 Bft)
23.12.2021 15:15 2,5 C 4,5 C 2,0 C 2,9 C 2,9 C 0,4 C 78 % 81 % 1011,4 hPa 0,0 l/m 3,1 km/h (1 Bft) SW 225 0 min -0,9 C 2,9 C 2,4 km/h (1 Bft)
23.12.2021 15:20 2,5 C 4,5 C 2,1 C 2,7 C 2,7 C 0,2 C 78 % 81 % 1011,4 hPa 0,0 l/m 3,2 km/h (1 Bft) W-SW 247 0 min -0,9 C 2,7 C 5,0 km/h (1 Bft)
23.12.2021 15:25 2,5 C 4,5 C 2,0 C 2,8 C 2,8 C 0,3 C 78 % 81 % 1011,4 hPa 0,0 l/m 3,1 km/h (1 Bft) W-SW 247 0 min -0,9 C 2,8 C 6,0 km/h (2 Bft)
23.12.2021 15:30 2,5 C 4,5 C 2,0 C 2,6 C 2,6 C 0,1 C 78 % 81 % 1011,4 hPa 0,0 l/m 3,2 km/h (1 Bft) NW 315 0 min -0,9 C 2,6 C 5,0 km/h (1 Bft)
23.12.2021 15:35 2,5 C 4,5 C 2,0 C 2,5 C 2,4 C 0,0 C 77 % 81 % 1011,4 hPa 0,0 l/m 3,2 km/h (1 Bft) W 270 0 min -1,1 C 2,4 C 2,7 km/h (1 Bft)
23.12.2021 15:40 2,5 C 4,5 C 1,9 C 2,5 C 2,5 C 0,0 C 77 % 81 % 1011,4 hPa 0,0 l/m 3,1 km/h (1 Bft) S-SW 202 0 min -1,1 C 2,5 C 2,1 km/h (1 Bft)
23.12.2021 15:45 2,4 C 4,5 C 1,8 C 2,6 C 2,6 C 0,2 C 78 % 81 % 1011,4 hPa 0,0 l/m 2,1 km/h (1 Bft) NW 315 0 min -1,0 C 2,6 C 2,1 km/h (1 Bft)
23.12.2021 15:50 2,5 C 4,5 C 1,8 C 2,5 C 2,5 C 0,0 C 78 % 81 % 1011,6 hPa 0,0 l/m 1,3 km/h (1 Bft) NW 315 0 min -0,9 C 2,5 C 0,0 km/h (0 Bft)
23.12.2021 15:55 2,4 C 4,6 C 1,7 C 2,5 C 2,5 C 0,1 C 78 % 82 % 1011,6 hPa 0,0 l/m 1,1 km/h (1 Bft) W-SW 247 0 min -1,0 C 2,5 C 5,5 km/h (1 Bft)
23.12.2021 16:00 2,4 C 4,6 C 1,7 C 2,4 C 2,4 C 0,0 C 78 % 82 % 1011,6 hPa 0,0 l/m 1,4 km/h (1 Bft) W-NW 292 0 min -1,0 C 2,4 C 2,1 km/h (1 Bft)
23.12.2021 16:05 2,4 C 4,6 C 1,7 C 2,4 C 2,4 C 0,0 C 78 % 82 % 1011,6 hPa 0,0 l/m 1,9 km/h (1 Bft) SW 225 0 min -1,0 C 2,4 C 2,3 km/h (1 Bft)
23.12.2021 16:10 2,3 C 4,6 C 1,7 C 2,4 C 2,4 C 0,1 C 78 % 82 % 1011,4 hPa 0,0 l/m 2,1 km/h (1 Bft) S-SW 202 0 min -1,1 C 2,4 C 3,1 km/h (1 Bft)
23.12.2021 16:15 2,3 C 4,6 C 1,7 C 2,3 C 2,2 C 0,0 C 78 % 82 % 1011,4 hPa 0,0 l/m 2,9 km/h (1 Bft) SW 225 0 min -1,1 C 2,2 C 4,7 km/h (1 Bft)
23.12.2021 16:20 2,4 C 4,6 C 1,7 C 2,4 C 2,4 C 0,0 C 78 % 82 % 1011,4 hPa 0,0 l/m 2,7 km/h (1 Bft) O-NO 67 0 min -1,0 C 2,4 C 4,8 km/h (1 Bft)
23.12.2021 16:25 2,3 C 4,6 C 1,7 C 2,5 C 2,5 C 0,2 C 78 % 82 % 1011,4 hPa 0,0 l/m 2,1 km/h (1 Bft) SW 225 0 min -1,1 C 2,5 C 6,8 km/h (2 Bft)
23.12.2021 16:30 2,3 C 4,6 C 1,6 C 2,2 C 2,1 C 0,0 C 78 % 82 % 1010,7 hPa 0,0 l/m 2,3 km/h (1 Bft) SW 225 0 min -1,1 C 2,1 C 3,1 km/h (1 Bft)
23.12.2021 16:35 2,3 C 4,6 C 1,5 C 1,8 C 0,8 C 0,0 C 78 % 83 % 1010,7 hPa 0,0 l/m 3,9 km/h (1 Bft) SW 225 0 min -1,1 C 0,8 C 16,7 km/h (3 Bft)
23.12.2021 16:40 2,1 C 4,6 C 1,4 C 1,7 C 0,9 C 0,0 C 79 % 84 % 1010,7 hPa 0,0 l/m 3,2 km/h (1 Bft) S-SO 157 0 min -1,2 C 0,9 C 5,5 km/h (1 Bft)
23.12.2021 16:45 2,1 C 4,7 C 1,3 C 1,8 C 1,3 C 0,0 C 79 % 85 % 1010,7 hPa 0,0 l/m 2,4 km/h (1 Bft) SW 225 0 min -1,2 C 1,3 C 0,0 km/h (0 Bft)
23.12.2021 16:50 2,0 C 4,7 C 1,3 C 1,5 C 0,6 C 0,0 C 80 % 86 % 1010,7 hPa 0,0 l/m 3,5 km/h (1 Bft) SO 135 0 min -1,1 C 0,6 C 12,2 km/h (2 Bft)
23.12.2021 16:55 2,1 C 4,7 C 1,2 C 1,5 C 0,2 C 0,0 C 81 % 86 % 1010,7 hPa 0,0 l/m 4,0 km/h (1 Bft) S-SO 157 0 min -0,8 C 0,2 C 2,7 km/h (1 Bft)
23.12.2021 17:00 2,0 C 4,7 C 1,1 C 1,2 C -0,5 C 0,0 C 81 % 87 % 1010,7 hPa 0,0 l/m 4,8 km/h (1 Bft) S 180 0 min -0,9 C -2,1 C 8,4 km/h (2 Bft)
23.12.2021 17:05 1,9 C 4,7 C 1,0 C 0,8 C -1,4 C 0,0 C 81 % 87 % 1010,7 hPa 0,0 l/m 7,1 km/h (2 Bft) S 180 0 min -1,0 C -4,1 C 8,2 km/h (2 Bft)
23.12.2021 17:10 1,9 C 4,7 C 1,0 C 0,8 C -1,3 C 0,0 C 81 % 87 % 1010,3 hPa 0,0 l/m 6,8 km/h (2 Bft) S 180 0 min -1,0 C -3,8 C 2,7 km/h (1 Bft)
23.12.2021 17:15 1,9 C 4,7 C 1,0 C 1,3 C 0,2 C 0,0 C 82 % 87 % 1010,3 hPa 0,0 l/m 4,0 km/h (1 Bft) W 270 0 min -0,8 C 0,2 C 3,4 km/h (1 Bft)
23.12.2021 17:20 1,9 C 4,7 C 1,1 C 1,5 C 0,8 C 0,0 C 82 % 87 % 1010,3 hPa 0,0 l/m 3,1 km/h (1 Bft) S-SO 157 0 min -0,8 C 0,8 C 13,2 km/h (3 Bft)
23.12.2021 17:25 2,1 C 4,7 C 1,2 C 1,6 C 0,7 C 0,0 C 81 % 85 % 1010,3 hPa 0,0 l/m 3,7 km/h (1 Bft) O-SO 112 0 min -0,8 C 0,7 C 6,8 km/h (2 Bft)
23.12.2021 17:30 2,1 C 4,7 C 1,3 C 1,6 C 0,7 C 0,0 C 81 % 86 % 1010,3 hPa 0,0 l/m 4,0 km/h (1 Bft) S 180 0 min -0,8 C 0,7 C 7,4 km/h (2 Bft)
23.12.2021 17:35 2,1 C 4,7 C 1,3 C 1,8 C 1,3 C 0,0 C 81 % 85 % 1010,3 hPa 0,0 l/m 3,4 km/h (1 Bft) W 270 0 min -0,8 C 1,3 C 3,4 km/h (1 Bft)
23.12.2021 17:40 2,3 C 4,7 C 1,4 C 2,2 C 1,9 C 0,0 C 80 % 85 % 1010,3 hPa 0,0 l/m 2,3 km/h (1 Bft) O-NO 67 0 min -0,8 C 1,9 C 2,9 km/h (1 Bft)
23.12.2021 17:45 2,3 C 4,7 C 1,5 C 2,2 C 2,0 C 0,0 C 80 % 84 % 1010,3 hPa 0,0 l/m 2,6 km/h (1 Bft) SW 225 0 min -0,8 C 2,0 C 7,4 km/h (2 Bft)
23.12.2021 17:50 2,3 C 4,7 C 1,5 C 2,1 C 1,6 C 0,0 C 80 % 84 % 1010,3 hPa 0,0 l/m 3,2 km/h (1 Bft) S 180 0 min -0,8 C 1,6 C 11,4 km/h (2 Bft)
23.12.2021 17:55 2,3 C 4,7 C 1,4 C 2,1 C 1,8 C 0,0 C 79 % 84 % 1010,3 hPa 0,0 l/m 3,4 km/h (1 Bft) SW 225 0 min -1,0 C 1,8 C 4,0 km/h (1 Bft)
23.12.2021 18:00 2,3 C 4,7 C 1,5 C 2,2 C 2,1 C 0,0 C 79 % 84 % 1010,3 hPa 0,0 l/m 2,9 km/h (1 Bft) SW 225 0 min -1,0 C 2,1 C 3,2 km/h (1 Bft)
23.12.2021 18:05 2,3 C 4,7 C 1,5 C 2,3 C 2,3 C 0,0 C 79 % 84 % 1010,3 hPa 0,0 l/m 1,9 km/h (1 Bft) O-NO 67 0 min -1,0 C 2,3 C 0,0 km/h (0 Bft)
23.12.2021 18:10 2,4 C 4,7 C 1,5 C 2,4 C 2,3 C 0,0 C 79 % 84 % 1010,3 hPa 0,0 l/m 2,7 km/h (1 Bft) S-SO 157 0 min -0,9 C 2,3 C 3,5 km/h (1 Bft)
23.12.2021 18:15 2,4 C 4,7 C 1,6 C 2,2 C 1,9 C 0,0 C 79 % 84 % 1010,3 hPa 0,0 l/m 3,5 km/h (1 Bft) O-NO 67 0 min -0,9 C 1,9 C 0,0 km/h (0 Bft)
23.12.2021 18:20 2,5 C 4,7 C 1,6 C 2,5 C 2,4 C 0,0 C 79 % 84 % 1010,3 hPa 0,0 l/m 2,7 km/h (1 Bft) W-SW 247 0 min -0,8 C 2,4 C 10,1 km/h (2 Bft)
23.12.2021 18:25 2,4 C 4,7 C 1,6 C 2,6 C 2,6 C 0,2 C 79 % 84 % 1010,3 hPa 0,0 l/m 1,8 km/h (1 Bft) S-SW 202 0 min -0,9 C 2,6 C 0,0 km/h (0 Bft)
23.12.2021 18:30 2,5 C 4,7 C 1,6 C 2,6 C 2,6 C 0,1 C 79 % 84 % 1009,5 hPa 0,0 l/m 1,9 km/h (1 Bft) W-SW 247 0 min -0,8 C 2,6 C 2,3 km/h (1 Bft)
23.12.2021 18:35 2,4 C 4,7 C 1,6 C 2,6 C 2,6 C 0,2 C 79 % 84 % 1009,5 hPa 0,0 l/m 1,3 km/h (1 Bft) S-SW 202 0 min -0,9 C 2,6 C 0,0 km/h (0 Bft)
23.12.2021 18:40 2,4 C 4,7 C 1,7 C 2,6 C 2,6 C 0,2 C 79 % 84 % 1009,5 hPa 0,0 l/m 1,6 km/h (1 Bft) S-SO 157 0 min -0,9 C 2,6 C 0,0 km/h (0 Bft)
23.12.2021 18:45 2,4 C 4,8 C 1,7 C 2,5 C 2,5 C 0,1 C 79 % 84 % 1009,5 hPa 0,0 l/m 2,4 km/h (1 Bft) S-SW 202 0 min -0,9 C 2,5 C 3,2 km/h (1 Bft)
23.12.2021 18:50 2,5 C 4,8 C 1,7 C 2,4 C 2,3 C 0,0 C 79 % 84 % 1009,5 hPa 0,0 l/m 3,1 km/h (1 Bft) W-SW 247 0 min -0,8 C 2,3 C 0,0 km/h (0 Bft)
23.12.2021 18:55 2,5 C 4,8 C 1,7 C 2,6 C 2,6 C 0,1 C 80 % 84 % 1009,5 hPa 0,0 l/m 2,6 km/h (1 Bft) O-NO 67 0 min -0,6 C 2,6 C 0,0 km/h (0 Bft)
23.12.2021 19:00 2,5 C 4,8 C 1,7 C 2,6 C 2,6 C 0,1 C 80 % 84 % 1009,5 hPa 0,0 l/m 1,4 km/h (1 Bft) O-NO 67 0 min -0,6 C 2,6 C 3,5 km/h (1 Bft)
23.12.2021 19:05 2,6 C 4,8 C 1,8 C 2,6 C 2,6 C 0,0 C 80 % 84 % 1009,5 hPa 0,0 l/m 1,6 km/h (1 Bft) NO 45 0 min -0,5 C 2,6 C 4,5 km/h (1 Bft)
23.12.2021 19:10 2,6 C 4,8 C 1,9 C 2,6 C 2,6 C 0,0 C 80 % 84 % 1008,4 hPa 0,0 l/m 2,7 km/h (1 Bft) SO 135 0 min -0,5 C 2,6 C 7,7 km/h (2 Bft)
23.12.2021 19:15 2,7 C 4,8 C 1,9 C 2,5 C 2,2 C 0,0 C 80 % 84 % 1008,4 hPa 0,0 l/m 3,7 km/h (1 Bft) SO 135 0 min -0,4 C 2,2 C 3,4 km/h (1 Bft)
23.12.2021 19:20 2,8 C 4,8 C 2,0 C 2,6 C 2,3 C 0,0 C 80 % 84 % 1008,4 hPa 0,0 l/m 3,7 km/h (1 Bft) SO 135 0 min -0,3 C 2,3 C 6,9 km/h (2 Bft)
23.12.2021 19:25 2,8 C 4,8 C 2,0 C 2,8 C 2,7 C 0,0 C 80 % 84 % 1008,4 hPa 0,0 l/m 3,1 km/h (1 Bft) S 180 0 min -0,3 C 2,7 C 13,4 km/h (3 Bft)
23.12.2021 19:30 2,8 C 4,8 C 2,1 C 2,9 C 2,9 C 0,1 C 80 % 84 % 1007,8 hPa 0,0 l/m 2,9 km/h (1 Bft) S-SW 202 0 min -0,3 C 2,9 C 5,0 km/h (1 Bft)
23.12.2021 19:35 2,8 C 4,8 C 2,1 C 2,7 C 2,4 C 0,0 C 79 % 84 % 1007,8 hPa 0,0 l/m 4,0 km/h (1 Bft) S-SW 202 0 min -0,5 C 2,4 C 2,1 km/h (1 Bft)
23.12.2021 19:40 2,9 C 4,8 C 2,1 C 2,7 C 2,4 C 0,0 C 79 % 84 % 1007,8 hPa 0,0 l/m 4,0 km/h (1 Bft) S-SW 202 0 min -0,4 C 2,4 C 6,4 km/h (2 Bft)
23.12.2021 19:45 2,9 C 4,8 C 2,3 C 2,9 C 2,9 C 0,0 C 79 % 83 % 1007,8 hPa 0,0 l/m 3,1 km/h (1 Bft) O 90 0 min -0,4 C 2,9 C 11,4 km/h (2 Bft)
23.12.2021 19:50 3,0 C 4,8 C 2,3 C 2,9 C 2,7 C 0,0 C 79 % 83 % 1007,7 hPa 0,0 l/m 3,4 km/h (1 Bft) SW 225 0 min -0,3 C 2,7 C 8,9 km/h (2 Bft)
23.12.2021 19:55 3,1 C 4,8 C 2,3 C 2,9 C 2,5 C 0,0 C 79 % 83 % 1007,7 hPa 0,0 l/m 4,0 km/h (1 Bft) SO 135 0 min -0,2 C 2,5 C 3,7 km/h (1 Bft)
23.12.2021 20:00 3,1 C 4,8 C 2,4 C 2,8 C 2,3 C 0,0 C 79 % 83 % 1007,7 hPa 0,0 l/m 4,5 km/h (1 Bft) NW 315 0 min -0,2 C 2,3 C 4,8 km/h (1 Bft)
23.12.2021 20:05 3,1 C 4,8 C 2,5 C 3,0 C 2,9 C 0,0 C 79 % 83 % 1007,7 hPa 0,0 l/m 3,7 km/h (1 Bft) W-SW 247 0 min -0,2 C 2,9 C 4,2 km/h (1 Bft)
23.12.2021 20:10 3,2 C 4,8 C 2,6 C 3,1 C 2,9 C 0,0 C 79 % 83 % 1007,4 hPa 0,0 l/m 3,9 km/h (1 Bft) SW 225 0 min -0,1 C 2,9 C 8,4 km/h (2 Bft)
23.12.2021 20:15 3,2 C 4,8 C 2,6 C 3,1 C 2,8 C 0,0 C 79 % 83 % 1007,4 hPa 0,0 l/m 4,3 km/h (1 Bft) O-NO 67 0 min -0,1 C 2,8 C 5,1 km/h (1 Bft)
23.12.2021 20:20 3,3 C 4,8 C 2,6 C 3,2 C 3,1 C 0,0 C 79 % 83 % 1007,4 hPa 0,0 l/m 3,9 km/h (1 Bft) W 270 0 min 0,0 C 3,1 C 3,4 km/h (1 Bft)
23.12.2021 20:25 3,3 C 4,9 C 2,6 C 3,1 C 2,8 C 0,0 C 79 % 83 % 1007,4 hPa 0,0 l/m 4,3 km/h (1 Bft) W-SW 247 0 min 0,0 C 2,8 C 9,5 km/h (2 Bft)
23.12.2021 20:30 3,2 C 4,9 C 2,5 C 2,9 C 2,2 C 0,0 C 79 % 84 % 1007,8 hPa 0,0 l/m 5,6 km/h (1 Bft) SW 225 0 min -0,1 C 0,7 C 11,6 km/h (2 Bft)
23.12.2021 20:35 3,3 C 4,9 C 2,6 C 3,0 C 1,2 C 0,0 C 80 % 85 % 1007,8 hPa 0,0 l/m 9,2 km/h (2 Bft) NO 45 0 min 0,2 C -1,7 C 17,9 km/h (3 Bft)
23.12.2021 20:40 3,3 C 4,9 C 2,7 C 2,6 C 1,2 C 0,0 C 81 % 85 % 1007,8 hPa 0,0 l/m 9,3 km/h (2 Bft) SW 225 0 min 0,4 C -1,7 C 3,9 km/h (1 Bft)
23.12.2021 20:45 3,3 C 4,9 C 2,6 C 2,6 C 1,3 C 0,0 C 81 % 86 % 1007,8 hPa 0,0 l/m 7,2 km/h (2 Bft) S-SO 157 0 min 0,4 C -1,0 C 8,5 km/h (2 Bft)
23.12.2021 20:50 3,2 C 4,9 C 2,6 C 2,7 C 1,8 C 0,0 C 82 % 87 % 1007,8 hPa 0,0 l/m 5,6 km/h (1 Bft) SO 135 0 min 0,4 C 0,2 C 6,3 km/h (2 Bft)
23.12.2021 20:55 3,2 C 4,9 C 2,6 C 2,8 C 1,9 C 0,0 C 82 % 87 % 1007,8 hPa 0,0 l/m 5,3 km/h (1 Bft) W-SW 247 0 min 0,4 C 0,4 C 12,6 km/h (3 Bft)
23.12.2021 21:00 3,2 C 5,0 C 2,6 C 2,7 C 1,7 C 0,0 C 83 % 87 % 1007,8 hPa 0,0 l/m 5,5 km/h (1 Bft) SO 135 0 min 0,6 C 0,1 C 3,4 km/h (1 Bft)
23.12.2021 21:05 3,2 C 5,0 C 2,5 C 2,8 C 1,9 C 0,0 C 83 % 88 % 1007,8 hPa 0,0 l/m 4,3 km/h (1 Bft) S-SO 157 0 min 0,6 C 1,9 C 4,5 km/h (1 Bft)
23.12.2021 21:10 3,1 C 5,0 C 2,4 C 2,8 C 2,2 C 0,0 C 83 % 89 % 1007,8 hPa 0,0 l/m 3,5 km/h (1 Bft) W-SW 247 0 min 0,5 C 2,2 C 4,8 km/h (1 Bft)
23.12.2021 21:15 3,1 C 5,0 C 2,3 C 2,7 C 1,8 C 0,0 C 84 % 89 % 1007,8 hPa 0,0 l/m 4,0 km/h (1 Bft) W 270 0 min 0,7 C 1,8 C 5,0 km/h (1 Bft)
23.12.2021 21:20 3,0 C 5,0 C 2,3 C 2,6 C 1,8 C 0,0 C 84 % 89 % 1007,8 hPa 0,0 l/m 4,0 km/h (1 Bft) W-SW 247 0 min 0,6 C 1,8 C 4,3 km/h (1 Bft)
23.12.2021 21:25 3,0 C 5,0 C 2,3 C 2,5 C 1,6 C 0,0 C 84 % 90 % 1007,8 hPa 0,0 l/m 4,5 km/h (1 Bft) S 180 0 min 0,6 C 1,6 C 6,9 km/h (2 Bft)
23.12.2021 21:30 3,0 C 5,1 C 2,3 C 2,6 C 1,7 C 0,0 C 84 % 90 % 1008,1 hPa 0,0 l/m 4,2 km/h (1 Bft) W-SW 247 0 min 0,6 C 1,7 C 4,5 km/h (1 Bft)
23.12.2021 21:35 2,9 C 5,1 C 2,2 C 2,7 C 2,3 C 0,0 C 85 % 90 % 1008,1 hPa 0,0 l/m 3,1 km/h (1 Bft) N-NW 337 0 min 0,6 C 2,3 C 2,7 km/h (1 Bft)
23.12.2021 21:40 2,9 C 5,1 C 2,3 C 2,7 C 2,3 C 0,0 C 85 % 90 % 1008,1 hPa 0,0 l/m 3,2 km/h (1 Bft) W-SW 247 0 min 0,6 C 2,3 C 7,7 km/h (2 Bft)
23.12.2021 21:45 2,9 C 5,1 C 2,3 C 2,5 C 1,8 C 0,0 C 86 % 91 % 1008,1 hPa 0,0 l/m 4,0 km/h (1 Bft) O-NO 67 0 min 0,8 C 1,8 C 12,9 km/h (3 Bft)
23.12.2021 21:50 2,9 C 5,2 C 2,3 C 2,4 C 1,5 C 0,0 C 86 % 91 % 1007,1 hPa 0,0 l/m 4,7 km/h (1 Bft) W-SW 247 0 min 0,8 C 0,2 C 6,1 km/h (2 Bft)
23.12.2021 21:55 2,9 C 5,2 C 2,3 C 2,5 C 1,8 C 0,0 C 86 % 91 % 1007,1 hPa 0,0 l/m 3,9 km/h (1 Bft) S 180 0 min 0,8 C 1,8 C 8,9 km/h (2 Bft)
23.12.2021 22:00 2,9 C 5,2 C 2,2 C 2,7 C 2,2 C 0,0 C 86 % 91 % 1007,1 hPa 0,0 l/m 3,2 km/h (1 Bft) SW 225 0 min 0,8 C 2,2 C 4,2 km/h (1 Bft)
23.12.2021 22:05 2,8 C 5,2 C 2,2 C 2,6 C 2,1 C 0,0 C 86 % 91 % 1007,1 hPa 0,0 l/m 3,4 km/h (1 Bft) S 180 0 min 0,7 C 2,1 C 5,1 km/h (1 Bft)
23.12.2021 22:10 2,8 C 5,2 C 2,2 C 2,7 C 2,5 C 0,0 C 87 % 91 % 1007,1 hPa 0,0 l/m 2,4 km/h (1 Bft) SW 225 0 min 0,9 C 2,5 C 4,7 km/h (1 Bft)
23.12.2021 22:15 2,8 C 5,2 C 2,2 C 2,7 C 2,5 C 0,0 C 87 % 92 % 1007,1 hPa 0,0 l/m 2,6 km/h (1 Bft) NO 45 0 min 0,9 C 2,5 C 5,3 km/h (1 Bft)
23.12.2021 22:20 2,9 C 5,2 C 2,2 C 2,7 C 2,2 C 0,0 C 87 % 92 % 1007,1 hPa 0,0 l/m 3,2 km/h (1 Bft) SW 225 0 min 1,0 C 2,2 C 5,1 km/h (1 Bft)
23.12.2021 22:25 2,9 C 5,2 C 2,3 C 2,6 C 2,1 C 0,0 C 87 % 92 % 1007,1 hPa 0,0 l/m 3,5 km/h (1 Bft) W 270 0 min 1,0 C 2,1 C 3,4 km/h (1 Bft)
23.12.2021 22:30 2,9 C 5,3 C 2,3 C 2,7 C 2,3 C 0,0 C 87 % 92 % 1006,8 hPa 0,0 l/m 3,1 km/h (1 Bft) O 90 0 min 1,0 C 2,3 C 1,8 km/h (1 Bft)
23.12.2021 22:35 3,1 C 5,3 C 2,3 C 3,0 C 2,7 C 0,0 C 87 % 92 % 1006,8 hPa 0,0 l/m 2,3 km/h (1 Bft) S 180 0 min 1,2 C 2,7 C 4,5 km/h (1 Bft)
23.12.2021 22:40 3,0 C 5,3 C 2,4 C 2,9 C 2,7 C 0,0 C 87 % 92 % 1006,8 hPa 0,0 l/m 1,9 km/h (1 Bft) NO 45 0 min 1,1 C 2,7 C 1,8 km/h (1 Bft)
23.12.2021 22:45 3,2 C 5,3 C 2,4 C 3,1 C 2,8 C 0,0 C 87 % 92 % 1006,8 hPa 0,0 l/m 2,4 km/h (1 Bft) W-SW 247 0 min 1,2 C 2,8 C 5,8 km/h (2 Bft)
23.12.2021 22:50 3,3 C 5,2 C 2,6 C 3,0 C 2,5 C 0,0 C 87 % 92 % 1006,3 hPa 0,0 l/m 3,4 km/h (1 Bft) SO 135 0 min 1,3 C 2,5 C 8,0 km/h (2 Bft)
23.12.2021 22:55 3,3 C 5,3 C 2,6 C 2,9 C 2,0 C 0,0 C 87 % 92 % 1006,3 hPa 0,0 l/m 4,5 km/h (1 Bft) O 90 0 min 1,3 C 2,0 C 3,1 km/h (1 Bft)
23.12.2021 23:00 3,3 C 5,3 C 2,6 C 3,0 C 2,3 C 0,0 C 87 % 92 % 1006,3 hPa 0,0 l/m 3,9 km/h (1 Bft) N-NO 22 0 min 1,3 C 2,3 C 1,8 km/h (1 Bft)
23.12.2021 23:05 3,5 C 5,3 C 2,7 C 3,4 C 3,1 C 0,0 C 87 % 92 % 1006,3 hPa 0,0 l/m 2,6 km/h (1 Bft) SW 225 0 min 1,5 C 3,1 C 5,1 km/h (1 Bft)
23.12.2021 23:10 3,5 C 5,3 C 2,7 C 3,4 C 3,1 C 0,0 C 87 % 92 % 1006,2 hPa 0,0 l/m 2,6 km/h (1 Bft) N-NW 337 0 min 1,5 C 3,1 C 1,8 km/h (1 Bft)
23.12.2021 23:15 3,5 C 5,3 C 2,8 C 3,4 C 3,1 C 0,0 C 87 % 92 % 1006,2 hPa 0,0 l/m 2,3 km/h (1 Bft) O-SO 112 0 min 1,5 C 3,1 C 2,6 km/h (1 Bft)
23.12.2021 23:20 3,5 C 5,3 C 2,9 C 3,4 C 3,2 C 0,0 C 87 % 92 % 1006,2 hPa 0,0 l/m 2,1 km/h (1 Bft) S 180 0 min 1,5 C 3,2 C 5,8 km/h (2 Bft)
23.12.2021 23:25 3,7 C 5,3 C 3,1 C 3,5 C 3,2 C 0,0 C 88 % 92 % 1006,2 hPa 0,0 l/m 3,4 km/h (1 Bft) W-SW 247 0 min 1,9 C 3,2 C 4,5 km/h (1 Bft)
23.12.2021 23:30 3,9 C 5,2 C 3,1 C 3,5 C 2,8 C 0,0 C 88 % 91 % 1005,8 hPa 0,0 l/m 4,3 km/h (1 Bft) SW 225 0 min 2,1 C 2,8 C 4,8 km/h (1 Bft)
23.12.2021 23:35 4,0 C 5,3 C 3,2 C 3,5 C 2,5 C 0,0 C 88 % 91 % 1005,8 hPa 0,0 l/m 6,1 km/h (2 Bft) SW 225 0 min 2,2 C 0,8 C 5,6 km/h (1 Bft)
23.12.2021 23:40 4,0 C 5,3 C 3,2 C 3,5 C 2,6 C 0,0 C 88 % 91 % 1005,8 hPa 0,0 l/m 6,6 km/h (2 Bft) O-SO 112 0 min 2,2 C 0,8 C 7,7 km/h (2 Bft)
23.12.2021 23:45 4,1 C 5,2 C 3,3 C 3,5 C 2,4 C 0,0 C 88 % 92 % 1005,8 hPa 0,0 l/m 7,1 km/h (2 Bft) W-SW 247 0 min 2,3 C 0,4 C 10,3 km/h (2 Bft)
23.12.2021 23:50 4,2 C 5,2 C 3,5 C 3,6 C 2,4 C 0,0 C 88 % 91 % 1005,7 hPa 0,0 l/m 7,4 km/h (2 Bft) SW 225 0 min 2,4 C 0,3 C 4,7 km/h (1 Bft)
23.12.2021 23:55 4,2 C 5,2 C 3,5 C 3,7 C 2,8 C 0,0 C 87 % 91 % 1005,7 hPa 0,0 l/m 6,8 km/h (2 Bft) SW 225 0 min 2,2 C 0,9 C 9,0 km/h (2 Bft)
_ Min-Zeit 01:30 12:55 01:30 01:20 01:20 00:00 15:35 15:05 23:50 - 00:00 - - - 01:25 01:20 00:00
Minimum _ -5,2 C 4,4 C -5,4 C -5,5 C -6,2 C 0,0 C 77 % 81 % 1005,7 hPa - 0,0 km/h (0 Bft) - - - -6,8 C -6,2 C 0,0 km/h (0 Bft)
_ Max-Zeit 23:50 00:00 23:50 23:55 23:20 10:40 01:10 01:40 00:10 00:00 20:40 - - 08:25 23:50 23:20 20:35
Maximum _ 4,2 C 5,3 C 3,5 C 3,7 C 3,2 C 0,9 C 89 % 94 % 1023,4 hPa 0,0 l/m 9,3 km/h
SW (2 Bft)
- - 5 min 2,4 C 3,2 C 17,9 km/h
NO (3 Bft)
Durchschnitt _ -0,9 C 4,9 C -1,0 C -0,9 C -1,2 C 0,1 C 86 % 90 % 1014,5 hPa #0,0 l/m 1,6 km/h (1 Bft) SW - #5 min. -3,0 C -1,3 C 2,5 km/h (1 Bft)
2021 www.wetterstation-wechselburg.de